Tracking 29790 objects as of 12-Oct-2024
HD Live streaming from Space Station
objects crossing your sky now

HELIOS 1A

Track HELIOS 1A now!
10-day predictions
HELIOS 1A is classified as:


NORAD ID: 23605
Int'l Code: 1995-033A
Perigee: 567.7 km
Apogee: 581.1 km
Inclination: 98.3 °
Period: 96.0 minutes
Semi major axis: 6945 km
RCS: Unknown
Launch date: July 7, 1995
Source: France (FR)
Launch site: FRENCH GUIANA (FRGUI)

Optical reconnaissance; cannot see through clouds or at night.
Your satellite tracking list
Your tracking list is empty




NASA's NSSDC Master Catalog

Two Line Element Set (TLE):
1 23605U 95033A   24282.80866125 0.00011500  00000-0  92830-3 0    05
2 23605  98.2811 122.8797 0009613 315.5729  44.4270 14.99876156    01
Source of the keplerian elements: McCants